{"data":{"norad_id":58541,"intl_designator":"2023-192L","name":"STARLINK-31045","alt_names":[],"object_type":"PAYLOAD","status":"ACTIVE","operator":null,"country":"US","launch_date":"2023-12-08","launch_site_code":"AFWTR","launch_vehicle":null,"mission":null,"orbit_class":"UNKNOWN","rcs_meters":null,"size_class":null,"mass_kg":null,"dimensions":null,"purposes":["comms"],"wikipedia_slug":null,"has_3d_model":false,"image_url":null,"decayed_at":null,"tle_current":{"epoch":"2026-09-20T12:22:00.060672Z","epoch_age_seconds":145685,"freshness":"FRESH","line1":"1 58541U 23192L   26263.51527848 -.00001308  00000+0 -27609-4 0  9990","line2":"2 58541  53.1612 313.8409 0001054 102.9243 257.1878 15.34391788154739","mean_motion":15.34391788,"eccentricity":0.0001054,"inclination_deg":53.1612,"raan_deg":313.8409,"arg_perigee_deg":102.9243,"mean_anomaly_deg":257.1878,"bstar":-2.7609e-5,"rev_number":15473,"period_min":93.84826035057,"perigee_km":462.00662097665,"apogee_km":463.44867524448,"semimajor_km":6840.8646481106,"source":"CELESTRAK","updated_at":"2026-09-21T09:00:33.913975Z"}}}